SV1RVP-13 Weather Reports


time (UTC)temp
C
wind
direction
speed
KPH
gust
KPH
rain 1hr
cm
rain 24hr
cm
rain mn
cm
humidity
%
barometer
mb
20260507192855 21 219 0.0 0.0 0.00 0.00 0.00 42 1017.9
20260507191839 21 246 1.6 0.0 0.00 0.00 0.00 42 1017.9
20260507190838 21 206 0.0 0.0 0.00 0.00 0.00 43 1017.7
20260507185826 21 206 1.6 0.0 0.00 0.00 0.00 44 1017.6
20260507184833 20 187 1.6 0.0 0.00 0.00 0.00 46 1017.8
20260507183835 20 151 0.0 0.0 0.00 0.00 0.00 47 1017.8
20260507182826 20 250 1.6 0.0 0.00 0.00 0.00 48 1017.6
20260507181845 20 179 1.6 0.0 0.00 0.00 0.00 48 1017.7
20260507180845 20 79 3.2 0.0 0.00 0.00 0.00 48 1017.6
20260507175835 20 169 3.2 0.0 0.00 0.00 0.00 49 1017.7
20260507174838 20 242 4.8 0.0 0.00 0.00 0.00 49 1017.5
20260507173838 20 158 6.4 0.0 0.00 0.00 0.00 50 1017.4
20260507172828 21 186 4.8 0.0 0.00 0.00 0.00 49 1017.7
20260507171829 21 206 4.8 0.0 0.00 0.00 0.00 48 1017.7
20260507170852 21 266 4.8 0.0 0.00 0.00 0.00 45 1017.5
20260507165838 21 198 4.8 0.0 0.00 0.00 0.00 44 1017.2
20260507164845 22 146 4.8 0.0 0.00 0.00 0.00 43 1016.9
20260507163956 22 159 4.8 0.0 0.00 0.00 0.00 42 1017.0
20260507162837 22 109 3.2 0.0 0.00 0.00 0.00 42 1017.2
20260507161837 22 194 4.8 0.0 0.00 0.00 0.00 44 1017.1
20260507160827 22 234 3.2 0.0 0.00 0.00 0.00 44 1017.1
20260507155845 22 136 4.8 0.0 0.00 0.00 0.00 44 1017.1
20260507154828 22 162 4.8 0.0 0.00 0.00 0.00 43 1017.2
20260507153948 22 194 4.8 0.0 0.00 0.00 0.00 45 1017.2
20260507153852 22 194 4.8 0.0 0.00 0.00 0.00 45 1017.2
20260507153149 22 163 6.4 0.0 0.00 0.00 0.00 45 1017.4
20260507152843 22 163 6.4 0.0 0.00 0.00 0.00 45 1017.4
20260507152534 22 239 4.8 0.0 0.00 0.00 0.00 46 1017.6
20260507151841 22 239 4.8 0.0 0.00 0.00 0.00 46 1017.6
20260507150854 22 168 4.8 0.0 0.00 0.00 0.00 47 1017.5
20260507145853 22 127 4.8 0.0 0.00 0.00 0.00 47 1017.5
20260507144840 22 196 6.4 0.0 0.00 0.00 0.00 46 1017.5
20260507143829 23 193 6.4 0.0 0.00 0.00 0.00 46 1017.7
20260507142840 23 195 4.8 0.0 0.00 0.00 0.00 45 1017.6
20260507141845 23 246 6.4 0.0 0.00 0.00 0.00 44 1017.5
20260507140852 23 166 8.0 0.0 0.00 0.00 0.00 43 1017.4
20260507135857 23 169 6.4 0.0 0.00 0.00 0.00 43 1017.2
20260507134253 23 209 6.4 0.0 0.00 0.00 0.00 42 1017.3
20260507132943 24 189 8.0 0.0 0.00 0.00 0.00 40 1017.0
20260507131856 24 223 8.0 0.0 0.00 0.00 0.00 43 1017.0
20260507130837 23 194 4.8 0.0 0.00 0.00 0.00 44 1017.1
20260507125831 23 165 6.4 0.0 0.00 0.00 0.00 47 1017.2
20260507124849 23 148 4.8 0.0 0.00 0.00 0.00 47 1017.4
20260507123840 23 125 4.8 0.0 0.00 0.00 0.00 49 1017.5
20260507122841 23 140 4.8 0.0 0.00 0.00 0.00 49 1017.7
20260507121840 23 192 4.8 0.0 0.00 0.00 0.00 53 1017.8
20260507120850 23 224 6.4 0.0 0.00 0.00 0.00 50 1017.8
20260507115837 24 192 8.0 0.0 0.00 0.00 0.00 48 1017.8
20260507114843 24 186 4.8 0.0 0.00 0.00 0.00 51 1017.6
20260507113846 23 185 4.8 0.0 0.00 0.00 0.00 56 1017.9
20260507112835 22 161 8.0 0.0 0.00 0.00 0.00 62 1018.0
20260507111835 23 173 6.4 0.0 0.00 0.00 0.00 63 1018.0
20260507110852 22 173 6.4 0.0 0.00 0.00 0.00 62 1018.2
20260507105837 23 213 8.0 0.0 0.00 0.00 0.00 60 1018.0
20260507104836 23 209 8.0 0.0 0.00 0.00 0.00 58 1017.9
20260507103838 24 215 6.4 0.0 0.00 0.00 0.00 57 1017.9
20260507102827 24 159 4.8 0.0 0.00 0.00 0.00 58 1017.5
20260507101830 23 177 6.4 0.0 0.00 0.00 0.00 63 1017.4
20260507100844 23 35 4.8 0.0 0.00 0.00 0.00 66 1017.6
20260507095826 22 229 6.4 0.0 0.00 0.00 0.00 71 1017.6
20260507094830 22 182 4.8 0.0 0.00 0.00 0.00 70 1017.6
20260507093829 22 219 3.2 0.0 0.00 0.00 0.00 70 1017.6
20260507092849 22 175 4.8 0.0 0.00 0.00 0.00 66 1017.8
20260507091836 22 236 6.4 0.0 0.00 0.00 0.00 65 1017.7
20260507090830 22 250 4.8 0.0 0.00 0.00 0.00 65 1017.7
20260507085850 22 167 3.2 0.0 0.00 0.00 0.00 63 1017.5
20260507084843 22 178 3.2 0.0 0.00 0.00 0.00 62 1017.5
20260507083842 22 171 3.2 0.0 0.00 0.00 0.00 61 1017.7
20260507082841 22 196 3.2 0.0 0.00 0.00 0.00 62 1017.5
20260507081829 21 183 3.2 0.0 0.00 0.00 0.00 62 1017.5
20260507080845 21 221 3.2 0.0 0.00 0.00 0.00 60 1017.5
20260507075839 21 202 3.2 0.0 0.00 0.00 0.00 57 1017.5
20260507074837 21 256 3.2 0.0 0.00 0.00 0.00 60 1017.4
20260507073845 21 202 3.2 0.0 0.00 0.00 0.00 58 1017.5
20260507072831 21 247 3.2 0.0 0.00 0.00 0.00 57 1017.2
20260507071838 21 203 4.8 0.0 0.00 0.00 0.00 56 1017.3
20260507070857 21 215 3.2 0.0 0.00 0.00 0.00 56 1017.4
20260507065840 20 253 4.8 0.0 0.00 0.00 0.00 57 1017.5
20260507064841 20 202 4.8 0.0 0.00 0.00 0.00 61 1017.5
20260507063830 20 187 3.2 0.0 0.00 0.00 0.00 62 1017.5
20260507062829 20 185 4.8 0.0 0.00 0.00 0.00 61 1017.3
20260507061831 20 229 3.2 0.0 0.00 0.00 0.00 60 1017.3
20260507060850 20 168 3.2 0.0 0.00 0.00 0.00 60 1017.2
20260507055836 20 218 3.2 0.0 0.00 0.00 0.00 60 1017.2
20260507054837 20 212 3.2 0.0 0.00 0.00 0.00 61 1017.2
20260507053838 20 312 0.0 0.0 0.00 0.00 0.00 61 1016.8
20260507052827 19 312 1.6 0.0 0.00 0.00 0.00 62 1016.4
20260507051843 18 324 1.6 0.0 0.00 0.00 0.00 63 1016.4
20260507050845 18 321 1.6 0.0 0.00 0.00 0.00 63 1016.4
20260507045831 18 5 3.2 0.0 0.00 0.00 0.00 64 1016.4
20260507044831 17 355 3.2 0.0 0.00 0.00 0.00 64 1016.4
20260507043830 17 5 3.2 0.0 0.00 0.00 0.00 64 1016.3
20260507042851 17 5 3.2 0.0 0.00 0.00 0.00 65 1016.4
20260507041835 17 360 3.2 0.0 0.00 0.00 0.00 65 1016.4
20260507040834 17 5 3.2 0.0 0.00 0.00 0.00 66 1016.6
20260507035853 17 77 1.6 0.0 0.00 0.00 0.00 67 1016.6
20260507034843 17 9 3.2 0.0 0.00 0.00 0.00 67 1016.6
20260507033840 17 355 3.2 0.0 0.00 0.00 0.00 67 1016.6
20260507032839 17 315 3.2 0.0 0.00 0.00 0.00 67 1016.3
20260507031828 17 12 1.6 0.0 0.00 0.00 0.00 66 1016.3
20260507030829 17 62 0.0 0.0 0.00 0.00 0.00 66 1016.2
20260507025843 17 355 3.2 0.0 0.00 0.00 0.00 66 1016.2
20260507024832 17 126 0.0 0.0 0.00 0.00 0.00 66 1016.0
20260507023834 17 126 0.0 0.0 0.00 0.00 0.00 67 1016.1
20260507022835 17 126 0.0 0.0 0.00 0.00 0.00 67 1016.1
20260507021850 17 126 0.0 0.0 0.00 0.00 0.00 67 1016.0
20260507020837 17 126 0.0 0.0 0.00 0.00 0.00 66 1016.0
20260507015831 17 126 0.0 0.0 0.00 0.00 0.00 65 1016.1
20260507014851 17 319 0.0 0.0 0.00 0.00 0.00 64 1016.1
20260507013843 17 319 0.0 0.0 0.00 0.00 0.00 64 1016.1
20260507012838 17 319 0.0 0.0 0.00 0.00 0.00 63 1015.8
20260507011842 17 319 0.0 0.0 0.00 0.00 0.00 62 1015.7
20260507010833 17 319 0.0 0.0 0.00 0.00 0.00 62 1015.4
20260507005827 17 319 0.0 0.0 0.00 0.00 0.00 59 1015.4
20260507004829 17 319 0.0 0.0 0.00 0.00 0.00 59 1015.3
20260507003839 18 319 1.6 0.0 0.00 0.00 0.00 59 1015.4
20260507002835 18 360 1.6 0.0 0.00 0.00 0.00 60 1015.2
20260507001837 18 360 0.0 0.0 0.00 0.00 0.00 62 1015.1
20260507000844 18 360 0.0 0.0 0.00 0.00 0.00 63 1015.4
20260506235837 18 360 0.0 0.0 0.00 0.00 0.00 63 1015.5
20260506234839 18 360 0.0 0.0 0.00 0.00 0.00 63 1015.7
20260506233831 18 360 0.0 0.0 0.00 0.00 0.00 63 1015.7
20260506232828 18 360 1.6 0.0 0.00 0.00 0.00 62 1015.9
20260506231828 18 360 1.6 0.0 0.00 0.00 0.00 62 1016.0
20260506230836 18 315 1.6 0.0 0.00 0.00 0.00 64 1016.0
20260506225829 18 294 1.6 0.0 0.00 0.00 0.00 63 1016.1
20260506224830 18 177 0.0 0.0 0.00 0.00 0.00 63 1016.0
20260506223849 18 177 0.0 0.0 0.00 0.00 0.00 63 1016.1
20260506222833 18 177 0.0 0.0 0.00 0.00 0.00 62 1016.1
20260506221832 18 177 0.0 0.0 0.00 0.00 0.00 61 1016.3
20260506220852 18 177 0.0 0.0 0.00 0.00 0.00 59 1016.2
20260506215845 19 177 0.0 0.0 0.00 0.00 0.00 61 1016.2
20260506214835 19 177 0.0 0.0 0.00 0.00 0.00 61 1016.3
20260506213836 19 177 0.0 0.0 0.00 0.00 0.00 61 1016.2
20260506212830 19 239 0.0 0.0 0.00 0.00 0.00 60 1016.5
20260506211831 19 241 0.0 0.0 0.00 0.00 0.00 60 1016.5
20260506210853 19 242 0.0 0.0 0.00 0.00 0.00 60 1016.6
20260506205853 19 242 0.0 0.0 0.00 0.00 0.00 59 1016.7
20260506204842 19 242 0.0 0.0 0.00 0.00 0.00 59 1016.7
20260506203843 19 244 3.2 0.0 0.00 0.00 0.00 58 1016.8
20260506202831 20 243 1.6 0.0 0.00 0.00 0.00 58 1016.7
20260506201833 20 241 1.6 0.0 0.00 0.00 0.00 56 1016.7
20260506200850 20 253 1.6 0.0 0.00 0.00 0.00 54 1016.6
20260506195846 20 245 1.6 0.0 0.00 0.00 0.00 52 1016.5
20260506194834 20 249 1.6 0.0 0.00 0.00 0.00 49 1016.5
20260506193834 21 244 1.6 0.0 0.00 0.00 0.00 46 1016.3